Hourly Weather Roundup
Issued by NWS Central Illinois

Home | Current Version | Previous Version | Text Only | Print | Product List | Glossary On
Versions: 1 2 3 4 5 6 7 8 9 10 11 12 13 14 15 16 17 18 19 20 21 22 23 24 25 26 27 28 29 30 31 32 33 34 35 36 37 38 39 40 41 42 43 44 45 46 47 48 49 50
000
NZUS43 KILX 250910
HWRILX

AREA WEATHER ROUNDUP
NATIONAL WEATHER SERVICE, LINCOLN IL
400 AM CDT FRI JUL 25 2014


CITY           SKY/WX    TMP DP  RH WIND       PRES   REMARKS
BLOOMINGTON    CLEAR     56  52  86 SE10      30.06F
CHAMPAIGN      CLEAR     57  54  89 E8        30.06F
DECATUR        PTCLDY    57  54  89 SE3       30.06F
FLORA          CLEAR     57  56  98 CALM      30.07F
GALESBURG      PTCLDY    60  56  88 CALM      30.02S
JACKSONVILLE   PTCLDY    61  56  82 SE7       30.04R
LACON          CLEAR     59  52  77 SE8       30.03S
LAWRENCEVILLE  CLEAR     58  57  97 N6        30.09R
LITCHFIELD     CLEAR     60  55  85 SE8       30.03F
$$


CITY           SKY/WX    TMP DP  RH WIND       PRES   REMARKS
LINCOLN        CLEAR     57  54  91 CALM      30.02F
MACOMB         PTCLDY    57  56  94 SE6       30.04R
MATTOON        PTCLDY    57  55  93 SE5       30.06F
MT CARMEL AP   CLEAR     55  54  94 CALM      30.09R
OLNEY-NOBLE AP CLEAR     55  55 100 CALM      30.08S
PARIS          CLEAR     51  50  97 CALM      30.08F
PEORIA         CLEAR     64  53  67 SE5       30.04S
PONTIAC        CLEAR     55  55 100 SE5       30.06S
RANTOUL        CLEAR     58  53  81 CALM      30.08F
ROBINSON         N/A     54  54  98 CALM      30.09R FOG
SPRINGFIELD    PTCLDY    60  56  86 SE3       30.03F
TAYLORVILLE    CLEAR     59  55  88 SE7       30.03F
$$

...REGIONAL REPORTS...


CITY           SKY/WX    TMP DP  RH WIND       PRES   REMARKS
CHICAGO O`HARE CLEAR     56  48  74 S5        30.04F
KANKAKEE       CLEAR     54  51  91 CALM      30.07F
MOLINE         PTCLDY    61  55  81 SE8       30.00R
MOUNT VERNON   CLEAR     55  50  82 CALM      30.07S
PITTSFIELD     PTCLDY    60  55  84 SE3       30.03R
QUINCY         CLOUDY    63  53  70 SE7       30.02R
ROCKFORD       MOCLDY    58  49  72 S3        30.08R
$$


CITY           SKY/WX    TMP DP  RH WIND       PRES   REMARKS
BURLINGTON     PTCLDY    65  56  72 S9        30.00R
CEDAR RAPIDS   CLOUDY    64  57  78 S6        30.00R
DES MOINES     CLOUDY    66  61  84 E12       29.93S
KIRKSVILLE     CLOUDY    64  55  72 S13       29.98R
OTTUMWA        CLOUDY    65  56  72 SE8       29.97R
ST LOUIS       MOCLDY    65  57  75 E7        30.02F
$$


CITY           SKY/WX    TMP DP  RH WIND       PRES   REMARKS
TERRE HAUTE    FOG       53  51  93 CALM      30.08S VSB 1/4
EVANSVILLE     CLEAR     59  56  89 CALM      30.06F
INDIANAPOLIS   CLEAR     59  52  77 CALM      30.07R
LAFAYETTE      CLEAR     53  52  96 CALM      30.08S
MADISON        CLEAR     64  51  62 S12       30.02R
MILWAUKEE      PTCLDY    60  45  57 SW10      30.03F
$$





USA.gov is the U.S. government's official web portal to all federal, state and local government web resources and services.